星链-33980 (STARLINK-33980)

导读

STARLINK-33980是美国SpaceX星链星座的一员,于2025年5月13日发射升空,该卫星延续星链项目设计,是低轨互联网卫星,承载着为全球提供高速宽带互联网接入服务的任务,进一步扩充了星链星座的卫星规模,强化了星座整体的覆盖能力与服务稳定性。

Basic Information
目录编号:
63930
目录名称:
STARLINK-33980
国际标识:
2025-098E
轨道中心:
EARTH
卫星名称:
星链-33980
卫星全名:
星链-33980 (STARLINK-33980)
卫星状态:
在轨 (已飞行479 天)
发射日期:
2025-05-13 UTC
国别 :
美国 (US)
星等 :
--
Orbit Information
数据来源 国际轨道数据
星历时间: 2026-09-04T06:00:02+0800
9小时前
查看轨道信息
半长轴: 6866.88km
偏心率: 0.0001433
轨道倾角: 70.002°
近地点辐角 303.733°
升交点赤经 184.898°
平近点角 74.038°
近地点: 487.758km
远地点: 489.728km
周期: 94.384分钟
每日圈数: 15.256805
Detailed Information
固有亮度:
5
最大亮度:
2.5
卫星平台:
Starlink V1.0
覆盖范围:
全球
运营商:
太空探索技术公司
运营商所在国:
美国
制造商(研发单位):
太空探索技术公司
制造商所在国:
美国
使用方式:
暂无
Satellite Introduction
Starlink 计划是 SpaceX 推出的全球卫星互联网项目,通过发射低轨道卫星,为全球尤其是偏远地区提供高速、低延迟的互联网服务。自 2019 年起,Starlink 已部署数千颗卫星,旨在缩小全球数字鸿沟,推动互联网普及。该项目还为军事、航空等行业提供通信支持,带来广泛经济效益。
2D Orbit Map
3D Orbit Map
Orbit Altitude Analysis Chart
Orbit Inclination Analysis Chart
Orbit Comprehensive Analysis Chart
View Comprehensive Chart
Conjunction Data List
Event ID Objects TCA Miss Dist (km) Collision Risk Probability Collision Risk Index (CRI) Action
CDM_260901-053605-802506-393021
PVCC (58025)
2026-09-01T
05:36:53+0000
0.620 km
远距离
1.148311E-4 高风险 0.76
CDM_260903-163305-809306-393021
2026-09-03T
16:33:36+0000
0.803 km
远距离
2.654636E-5 中风险 0.63
CDM_260901-155005-306306-393021
2026-09-01T
15:50:05+0000
1.272 km
极远距离
1.117398E-5 中风险 0.56
CDM_260904-183004-944206-393021
2026-09-04T
18:30:08+0000
1.913 km
极远距离
2.191685E-6 低风险 0.42
CDM_260903-203105-941606-393021
2026-09-03T
20:31:21+0000
2.030 km
极远距离
1.684172E-6 低风险 0.4
CDM_260903-220505-941606-393021
2026-09-03T
22:05:33+0000
2.854 km
极远距离
9.103434E-7 极低风险 0.34
CDM_260904-152205-360906-393021
2026-09-04T
15:22:07+0000
2.616 km
极远距离
8.912816E-7 极低风险 0.34